PDT,Max TemperatureF,Mean TemperatureF,Min TemperatureF,Max Dew PointF,MeanDew PointF,Min DewpointF,Max Humidity, Mean Humidity, Min Humidity, Max Sea Level PressureIn, Mean Sea Level PressureIn, Min Sea Level PressureIn, Max VisibilityMiles, Mean VisibilityMiles, Min VisibilityMiles, Max Wind SpeedMPH, Mean Wind SpeedMPH, Max Gust SpeedMPH,PrecipitationIn, CloudCover, Events, WindDirDegrees
2013-5-1,66,46,25,13,8,3,50,30,9,30.43,30.34,30.27,10,10,10,15,8,21,0.00,0,,59
2013-5-2,75,48,21,26,14,6,60,35,9,30.43,30.32,30.18,10,10,10,12,2,20,0.00,0,,57
2013-5-3,76,52,28,28,22,16,78,44,10,30.22,30.12,30.02,10,10,8,23,7,25,0.00,0,,19
2013-5-4,67,55,42,33,30,26,70,47,24,30.04,29.89,29.75,10,10,10,23,10,31,0.00,1,,38
2013-5-5,72,55,38,41,32,26,77,49,20,29.80,29.72,29.67,10,10,10,21,6,25,0.00,2,,160
2013-5-6,66,51,36,46,42,36,89,66,43,29.96,29.84,29.77,10,10,6,21,6,46,0.08,4,Rain-Thunderstorm,292
2013-5-7,55,49,43,48,46,43,100,86,72,30.01,29.96,29.88,10,9,2,17,6,21,0.19,8,Rain-Thunderstorm,241
2013-5-8,63,55,47,52,48,46,100,78,56,30.12,30.06,29.99,10,9,4,13,3,16,0.08,6,Rain-Thunderstorm,281
2013-5-9,75,57,39,50,45,39,100,67,33,30.22,30.13,30.05,10,7,0,14,3,18,0.06,3,Fog-Rain-Thunderstorm,353
2013-5-10,81,60,39,49,43,34,100,60,19,30.29,30.18,30.13,10,10,6,10,2,16,0.00,0,,278
2013-5-11,83,62,41,48,42,37,93,57,20,30.22,30.16,30.10,10,10,10,16,4,21,0.00,1,,210
2013-5-12,83,64,45,47,41,32,93,56,18,30.17,30.11,30.04,10,10,10,22,7,30,0.00,0,,253
2013-5-13,82,60,38,45,38,30,85,52,18,30.10,30.04,30.00,10,10,10,31,10,44,0.00,0,,256
2013-5-14,80,60,39,45,39,34,92,57,21,30.04,29.97,29.90,10,10,10,18,6,23,0.00,0,,305
2013-5-15,74,56,37,48,39,33,89,56,23,30.00,29.96,29.89,10,10,10,24,7,32,0.05,3,Rain,285
2013-5-16,54,49,44,46,43,41,100,86,71,29.98,29.93,29.91,10,9,2,17,4,22,0.47,8,Rain,284
2013-5-17,61,53,44,45,41,33,93,65,36,30.04,29.95,29.91,10,10,5,23,7,29,0.07,7,Rain,261
2013-5-18,64,52,40,41,38,33,89,64,39,30.19,30.09,30.05,10,10,10,22,7,28,T,6,,297
2013-5-19,65,51,36,35,31,21,79,50,20,30.27,30.22,30.17,10,10,10,14,5,20,0.00,0,,2
2013-5-20,74,53,32,38,32,25,89,53,16,30.24,30.10,29.92,10,10,10,9,4,16,0.00,0,,136
2013-5-21,65,50,34,38,28,11,76,44,12,29.92,29.81,29.74,10,10,10,35,16,46,T,1,,259
2013-5-22,54,39,24,24,19,11,75,47,18,30.04,29.96,29.89,10,10,10,11,6,21,0.00,2,,312
2013-5-23,57,44,31,30,27,21,65,46,26,29.98,29.92,29.85,10,10,10,17,6,24,T,6,Rain,282
2013-5-24,67,46,24,32,27,20,92,54,16,30.01,29.95,29.88,10,10,10,18,6,40,0.00,1,,271
2013-5-25,68,51,33,36,32,26,82,53,24,29.99,29.93,29.89,10,10,10,22,5,30,0.00,3,,263
2013-5-26,63,53,42,44,38,33,86,61,36,30.05,29.97,29.92,10,10,10,29,7,36,0.05,6,Rain,271
2013-5-27,55,47,39,46,43,36,86,76,66,30.04,29.96,29.88,10,9,5,22,7,26,0.41,7,Rain,236
2013-5-28,64,54,44,45,40,36,93,65,36,29.97,29.90,29.83,10,9,4,15,7,21,0.12,6,Rain,280
2013-5-29,66,56,46,43,36,30,86,58,30,29.95,29.84,29.76,10,10,10,20,9,24,T,4,,266
2013-5-30,69,52,34,37,31,24,96,59,22,30.11,30.00,29.97,10,10,10,17,5,22,0.00,1,,295
2013-5-31,75,54,33,36,30,21,89,52,14,30.19,30.14,30.09,10,10,10,8,3,9,0.00,0,,355